Regional Weather Roundup
Issued by NWS Little Rock, AR

Home | Current Version | Previous Version | Graphics & Text | Print | Product List | Glossary On
Versions: 1 2 3 4 5 6 7 8 9 10 11 12 13 14 15 16 17 18 19 20 21 22 23 24 25 26 27 28 29 30 31 32
000
ASUS44 KLZK 180605
RWRLZK

WEATHER ROUNDUP FOR ARKANSAS
NATIONAL WEATHER SERVICE LITTLE ROCK AR
1200 AM CST WED JAN 18 2017

NOTE: "FAIR" INDICATES FEW OR NO CLOUDS BELOW 12,000 FEET WITH NO
SIGNIFICANT WEATHER AND/OR OBSTRUCTIONS TO VISIBILITY.

ARZ001-003-010-029-180700-
NORTHWEST ARKANSAS

CITY           SKY/WX    TMP DP  RH WIND       PRES   REMARKS
FAYETTEVILLE   CLOUDY    38  38 100 S3        30.20F
6HR MIN TEMP:  36; 6HR MAX TEMP:  41;

FORT SMITH     PTCLDY    42  38  85 CALM      30.20F
6HR MIN TEMP:  41; 6HR MAX TEMP:  44;

HARRISON       CLOUDY    39  37  92 NW6       30.18F
6HR MIN TEMP:  37; 6HR MAX TEMP:  40;

BENTONVILLE    CLOUDY   N/A N/A N/A CALM      30.19F
ROGERS         CLOUDY    38  36  92 CALM      30.19F
6HR MIN TEMP:  38; 6HR MAX TEMP:  39;

SILOAM SPGS    CLOUDY    39  36  87 N3        30.18F
6HR MIN TEMP:  37; 6HR MAX TEMP:  41;

HIGHFILL       CLOUDY    40  37  89 CALM      30.18F
6HR MIN TEMP:  39; 6HR MAX TEMP:  40;

$$

ARZ004-005-016-180700-
NORTH CENTRAL ARKANSAS

CITY           SKY/WX    TMP DP  RH WIND       PRES   REMARKS
BATESVILLE     PTCLDY    39  36  87 W5        30.21F
6HR MIN TEMP:  39; 6HR MAX TEMP:  46;

FLIPPIN        CLOUDY    41  34  75 NW6       30.18F
6HR MIN TEMP:  37; 6HR MAX TEMP:  43;

MTN HOME       CLOUDY    40  37  89 N7        30.19F
6HR MIN TEMP:  39; 6HR MAX TEMP:  40;

$$

ARZ040-041-180700-
WEST CENTRAL ARKANSAS

CITY           SKY/WX    TMP DP  RH WIND       PRES   REMARKS
MENA           CLOUDY    46  46 100 SW3       30.20R
MOUNT IDA      CLOUDY    46  41  82 CALM      30.16F
6HR MIN TEMP:  46; 6HR MAX TEMP:  50;

$$

ARZ009-017-025-026-028-180700-
NORTHEAST ARKANSAS

CITY           SKY/WX    TMP DP  RH WIND       PRES   REMARKS
CORNING        FAIR      39  39 100 NW6       30.20S
JONESBORO      CLOUDY    42  40  92 NW3       30.19R
6HR MIN TEMP:  42; 6HR MAX TEMP:  46;

NEWPORT        CLOUDY    41  38  89 MISG        N/A
6HR MIN TEMP:  41; 6HR MAX TEMP:  46;

WALNUT RIDGE   PTCLDY    39  36  87 NW9       30.19S
6HR MIN TEMP:  39; 6HR MAX TEMP:  45;

BLYTHEVILLE    MOCLDY    44  41  89 CALM      30.19S
6HR MIN TEMP:  43; 6HR MAX TEMP:  48;

$$

ARZ022-023-033-042-044-180700-
CENTRAL ARKANSAS

CITY           SKY/WX    TMP DP  RH WIND       PRES   REMARKS
LITTLE ROCK    CLOUDY    46  42  86 NW8       30.21R
6HR MIN TEMP:  46; 6HR MAX TEMP:  50; 6HR PCP: TRACE;

N LITTLE ROCK    N/A     45  41  85 NW5       30.22R
6HR MIN TEMP:  45; 6HR MAX TEMP:  49;

JACKSONVILLE   CLOUDY    46  42  84 NW5       30.20S
6HR MIN TEMP:  46; 6HR MAX TEMP:  50;

SEARCY         PTCLDY    45  42  89 N7        30.22R
6HR MIN TEMP:  45; 6HR MAX TEMP:  49;

HOT SPRINGS    LGT RAIN  49  45  86 W3        30.19F
6HR MIN TEMP:  49; 6HR MAX TEMP:  52; 6HR PCP: TRACE;

RUSSELLVILLE   PTCLDY    43  39  86 E3        30.20F
6HR MIN TEMP:  43; 6HR MAX TEMP:  45;

CLINTON        FAIR      41  39  93 CALM      30.23R
$$

ARZ036-180700-
EAST ARKANSAS

CITY           SKY/WX    TMP DP  RH WIND       PRES   REMARKS
WEST MEMPHIS   CLOUDY    46  43  89 NE8       30.16F
6HR MIN TEMP:  46; 6HR MAX TEMP:  51;

$$

ARZ050-053-066-070-073-180700-
SOUTHWEST ARKANSAS

CITY           SKY/WX    TMP DP  RH WIND       PRES   REMARKS
ARKADELPHIA    LGT RAIN  51  49  92 CALM      30.20F
6HR MIN TEMP:  51; 6HR MAX TEMP:  54; 6HR PCP: TRACE;

CAMDEN         CLOUDY    52  48  87 CALM      30.18S
TEXARKANA      LGT RAIN  49  49 100 N5        30.17F
6HR MIN TEMP:  49; 6HR MAX TEMP:  51; 6HR PCP:  0.15;

EL DORADO      CLOUDY    52  52 100 N5        30.17S
6HR MIN TEMP:  52; 6HR MAX TEMP:  53;

DE QUEEN       LGT RAIN  48  47  96 E3        30.14F
6HR MIN TEMP:  48; 6HR MAX TEMP:  51; 6HR PCP: TRACE;

$$

ARZ056-057-069-180700-
SOUTHEAST ARKANSAS

CITY           SKY/WX    TMP DP  RH WIND       PRES   REMARKS
PINE BLUFF     CLOUDY    50  45  83 N6        30.20R
6HR MIN TEMP:  50; 6HR MAX TEMP:  54; 6HR PCP: TRACE;

STUTTGART      CLOUDY    48  39  71 N7        30.20F
6HR MIN TEMP:  48; 6HR MAX TEMP:  52;

MONTICELLO     LGT RAIN  53  51  93 NW3       30.16S
6HR MIN TEMP:  52; 6HR MAX TEMP:  53; 6HR PCP: TRACE;


$$






USA.gov is the U.S. government's official web portal to all federal, state and local government web resources and services.